SKYSAT-C17 (46179 NORAD) Tracking and Keplerian Element Data

This shows tracking and keplerian element data for the satellite.

Feedback or suggestion? Click here.




ElementValue
Catalog46179
NameSKYSAT-C17
Epoch Orbit1730
Epoch Day335.5988162
Epoch Year2020
RAAN284.1498
Inclination52.9996
Eccentricity0.0007157
Argument of Perigee309.9661
Mean Anonmoly50.0727
Mean Motion15.73753819
Decay Rate0.00043677
L11 46179U 20057BQ 20335.59881620 .00043677 00000-0 30621-3 0 9995
L22 46179 52.9996 284.1498 0007157 309.9661 50.0727 15.73753819 17300

Live tracking and technical data element details for SKYSAT-C17 (NORAD 46179). SKYSAT-C17 can be tracked NOW for your location showing map with azimuth and elevation plus other details from your city location.

Track the satellite on the map from your city or location and see movement details for azimuth, elevation, latitude, longitude, range, height, and movement on the map or in text.







IsCatalogInMostPopularTable: catalog: 46179, numindb: 19
Update: records affected: 1



GetName: 46179 SKYSAT-C17

Hit Count: updated at: Wed, 02 Dec 2020 05:59:44 GMT